Overview Statistics Trail Chart Weather Telemetry Raw packets
 

This is the latest recevied weather packets stored in our database for station/object W5MAI. If no packets are shown the sender has not sent any weather packets the latest 10 day(s).

<< 42 43 44 45 46 47 48 >>
Time Temp. Humidity Pressure Rain* Wind** Luminosity Snow
1787898813 23.33° C 95% 1018.7 hPa 0 mm - 0 W/m² -
1787898216 23.33° C 95% 1018.9 hPa 0 mm - 0 W/m² -
1787897627 23.89° C 95% 1018.9 hPa 0 mm - 0 W/m² -
1787897011 23.33° C 95% 1019 hPa 0 mm - 0 W/m² -
1787896415 23.89° C 95% 1018.8 hPa 0 mm - 0 W/m² -
1787895828 23.89° C 95% 1018.9 hPa 0 mm - 0 W/m² -
1787895211 23.33° C 95% 1018.9 hPa 0 mm - 0 W/m² -
1787894623 23.33° C 95% 1018.5 hPa 0 mm - 0 W/m² -
1787894003 23.33° C 95% 1018.3 hPa 0.25 mm - 0 W/m² -
1787893418 23.33° C 95% 1018.3 hPa 0.25 mm - 0 W/m² -
1787892858 23.33° C 95% 1018.1 hPa 0.25 mm - 0 W/m² -
1787892228 23.33° C 94% 1018 hPa 0.51 mm - 0 W/m² -
1787891640 23.33° C 94% 1017.9 hPa 3.81 mm - 0 W/m² -
1787891010 23.33° C 95% 1018.1 hPa 3.56 mm - 0 W/m² -
1787890435 23.33° C 95% 1018.1 hPa 3.56 mm - 0 W/m² -
1787889804 23.33° C 94% 1018.2 hPa 3.56 mm - 0 W/m² -
1787888031 23.33° C 94% 1018.2 hPa 0 mm - 0 W/m² -
1787887404 23.33° C 94% 1018.7 hPa 0 mm - 0 W/m² -
1787886818 23.33° C 94% 1017.6 hPa 0 mm - 0 W/m² -
1787886259 23.33° C 94% 1017.2 hPa 0 mm - 0 W/m² -
1787884407 23.33° C 94% 1017.2 hPa 0 mm - 0 W/m² -
1787883832 23.33° C 94% 1016.7 hPa 0 mm - 0 W/m² -
1787883258 23.33° C 94% 1016.7 hPa 0 mm - 0 W/m² -
1787882626 23.33° C 94% 1016.6 hPa 0 mm - 0 W/m² -
1787882037 23.33° C 94% 1016.6 hPa 0 mm - 0 W/m² -

* Rain latest hour (hover to see other rain measurements)
** Current wind speed in m/s (hover to see current wind gust speed)